Hourly Weather Trashigang

Today, 12 August, Wednesday

Time Temperature Precipitation Wind Pressure Humidity
00:00 +19°C° 0 mm 0 mps 625 mmHg 97%
01:00 +19°C° 0 mm 0 mps 625 mmHg 96%
02:00 +19°C° 0 mm 0 mps 624 mmHg 96%
03:00 +19°C° 0 mm 0 mps 624 mmHg 95%
04:00 +19°C° 0 mm 0 mps 624 mmHg 95%
05:00 +19°C° 0 mm 0 mps 624 mmHg 95%
06:00 +19°C° 0 mm 0 mps 624 mmHg 94%
07:00 +22°C° 0.1 mm 1 mps 625 mmHg 93%
08:00 +23°C° 0.1 mm 1 mps 625 mmHg 91%
09:00 +23°C° 0.1 mm 1 mps 626 mmHg 90%
10:00 +24°C° 0.2 mm 1 mps 626 mmHg 88%
11:00 +24°C° 0.2 mm 1 mps 626 mmHg 86%
12:00 +25°C° 0.2 mm 1 mps 625 mmHg 85%
13:00 +25°C° 0.4 mm 1 mps 625 mmHg 84%
14:00 +26°C° 0.4 mm 2 mps 625 mmHg 84%
15:00 +26°C° 0.4 mm 2 mps 624 mmHg 84%
16:00 +25°C° 0.9 mm 1 mps 624 mmHg 88%
17:00 +25°C° 0.9 mm 1 mps 624 mmHg 92%
18:00 +24°C° 0.9 mm 1 mps 624 mmHg 97%
19:00 +21°C° 0.2 mm 0 mps 624 mmHg 97%
20:00 +21°C° 0.2 mm 0 mps 625 mmHg 97%
21:00 +20°C° 0.2 mm 0 mps 625 mmHg 97%
22:00 +20°C° 0.2 mm 0 mps 625 mmHg 97%
23:00 +20°C° 0.2 mm 0 mps 625 mmHg 97%

Tomorrow, 13 August, Thursday

Time Temperature Precipitation Wind Pressure Humidity
00:00 +20°C° 0.2 mm 0 mps 625 mmHg 97%
01:00 +20°C° 0.4 mm 0 mps 625 mmHg 98%
02:00 +20°C° 0.4 mm 0 mps 625 mmHg 98%
03:00 +20°C° 0.4 mm 0 mps 624 mmHg 98%
04:00 +20°C° 0.3 mm 0 mps 624 mmHg 98%
05:00 +20°C° 0.3 mm 0 mps 624 mmHg 98%
06:00 +20°C° 0.3 mm 0 mps 624 mmHg 98%
07:00 +20°C° 0.4 mm 0 mps 625 mmHg 97%
08:00 +21°C° 0.4 mm 0 mps 625 mmHg 97%
09:00 +21°C° 0.4 mm 0 mps 625 mmHg 96%
10:00 +23°C° 0.8 mm 1 mps 625 mmHg 96%
11:00 +23°C° 0.8 mm 1 mps 625 mmHg 96%
12:00 +23°C° 0.8 mm 1 mps 625 mmHg 96%
13:00 +23°C° 0.9 mm 1 mps 624 mmHg 95%
14:00 +21°C° 0.9 mm 0 mps 623 mmHg 95%
15:00 +21°C° 0.9 mm 0 mps 623 mmHg 95%
16:00 +21°C° 0.1 mm 0 mps 623 mmHg 95%
17:00 +21°C° 0.1 mm 0 mps 623 mmHg 96%
18:00 +21°C° 0.1 mm 0 mps 623 mmHg 96%
19:00 +21°C° 0 mm 0 mps 623 mmHg 96%
20:00 +20°C° 0 mm 0 mps 624 mmHg 96%
21:00 +20°C° 0 mm 0 mps 624 mmHg 96%
22:00 +19°C° 0.1 mm 0 mps 624 mmHg 96%
23:00 +19°C° 0.1 mm 0 mps 624 mmHg 95%

Day after tomorrow, 14 August, Friday

Time Temperature Precipitation Wind Pressure Humidity
00:00 +19°C° 0.1 mm 0 mps 624 mmHg 95%
01:00 +19°C° 0.1 mm 0 mps 624 mmHg 95%
02:00 +19°C° 0.1 mm 0 mps 623 mmHg 96%
03:00 +19°C° 0.1 mm 0 mps 623 mmHg 96%
04:00 +19°C° 0.2 mm 0 mps 623 mmHg 96%
05:00 +19°C° 0.2 mm 0 mps 623 mmHg 96%
06:00 +19°C° 0.2 mm 0 mps 623 mmHg 97%
07:00 +20°C° 0.3 mm 0 mps 624 mmHg 96%
08:00 +20°C° 0.3 mm 0 mps 624 mmHg 95%
09:00 +21°C° 0.3 mm 0 mps 625 mmHg 94%
10:00 +21°C° 0.5 mm 0 mps 624 mmHg 94%
11:00 +21°C° 0.5 mm 0 mps 624 mmHg 94%
12:00 +21°C° 0.5 mm 0 mps 624 mmHg 94%
13:00 +22°C° 0.3 mm 0 mps 623 mmHg 92%
14:00 +22°C° 0.3 mm 0 mps 623 mmHg 90%
15:00 +25°C° 0.3 mm 1 mps 623 mmHg 87%
16:00 +24°C° 0.4 mm 1 mps 622 mmHg 90%
17:00 +22°C° 0.4 mm 0 mps 622 mmHg 93%
18:00 +22°C° 0.4 mm 0 mps 622 mmHg 96%
19:00 +21°C° 0.3 mm 0 mps 622 mmHg 96%
20:00 +21°C° 0.3 mm 0 mps 623 mmHg 96%
21:00 +20°C° 0.3 mm 0 mps 623 mmHg 96%
22:00 +20°C° 0.6 mm 0 mps 623 mmHg 97%
23:00 +20°C° 0.6 mm 0 mps 623 mmHg 97%

15 August, Saturday

Time Temperature Precipitation Wind Pressure Humidity
00:00 +20°C° 0.6 mm 0 mps 623 mmHg 97%
01:00 +19°C° 0.6 mm 0 mps 623 mmHg 97%
02:00 +19°C° 0.6 mm 0 mps 622 mmHg 97%
03:00 +19°C° 0.6 mm 0 mps 622 mmHg 97%
04:00 +19°C° 0.1 mm 0 mps 622 mmHg 96%
05:00 +19°C° 0.1 mm 0 mps 622 mmHg 96%
06:00 +19°C° 0.1 mm 0 mps 623 mmHg 95%
07:00 +20°C° 0.2 mm 0 mps 623 mmHg 92%
08:00 +22°C° 0.2 mm 0 mps 624 mmHg 89%
09:00 +25°C° 0.2 mm 1 mps 624 mmHg 86%
10:00 +26°C° 0.6 mm 1 mps 624 mmHg 84%
11:00 +26°C° 0.6 mm 1 mps 624 mmHg 82%
12:00 +27°C° 0.6 mm 2 mps 624 mmHg 80%
13:00 +26°C° 1.1 mm 2 mps 624 mmHg 84%
14:00 +26°C° 1.1 mm 2 mps 623 mmHg 89%
15:00 +25°C° 1.1 mm 1 mps 622 mmHg 94%
16:00 +24°C° 0.6 mm 1 mps 622 mmHg 95%
17:00 +24°C° 0.6 mm 1 mps 622 mmHg 96%
18:00 +21°C° 0.6 mm 0 mps 622 mmHg 97%
19:00 +21°C° 0.3 mm 0 mps 623 mmHg 97%
20:00 +20°C° 0.3 mm 0 mps 623 mmHg 97%
21:00 +20°C° 0.3 mm 0 mps 624 mmHg 96%
22:00 +20°C° 0.3 mm 0 mps 624 mmHg 96%
23:00 +20°C° 0.3 mm 0 mps 624 mmHg 96%

16 August, Sunday

Time Temperature Precipitation Wind Pressure Humidity
00:00 +20°C° 0.3 mm 0 mps 624 mmHg 96%
01:00 +20°C° 1.3 mm 0 mps 624 mmHg 96%
02:00 +19°C° 1.3 mm 0 mps 623 mmHg 97%
03:00 +19°C° 1.3 mm 0 mps 623 mmHg 97%
04:00 +19°C° 1.7 mm 0 mps 623 mmHg 97%
05:00 +19°C° 1.7 mm 0 mps 623 mmHg 97%
06:00 +19°C° 1.7 mm 0 mps 624 mmHg 97%
07:00 +20°C° 0.8 mm 0 mps 624 mmHg 94%
08:00 +21°C° 0.8 mm 0 mps 625 mmHg 92%
09:00 +22°C° 0.8 mm 0 mps 625 mmHg 89%
10:00 +25°C° 0.8 mm 1 mps 625 mmHg 89%
11:00 +25°C° 0.8 mm 1 mps 625 mmHg 90%
12:00 +26°C° 0.8 mm 2 mps 624 mmHg 90%
13:00 +25°C° 0.9 mm 2 mps 624 mmHg 91%
14:00 +25°C° 0.9 mm 1 mps 623 mmHg 93%
15:00 +25°C° 0.9 mm 1 mps 623 mmHg 94%
16:00 +24°C° 0.8 mm 1 mps 623 mmHg 95%
17:00 +24°C° 0.8 mm 1 mps 623 mmHg 96%
18:00 +23°C° 0.8 mm 1 mps 623 mmHg 97%
19:00 +23°C° 0.5 mm 1 mps 623 mmHg 97%
20:00 +20°C° 0.5 mm 0 mps 624 mmHg 97%
21:00 +20°C° 0.5 mm 0 mps 624 mmHg 96%
22:00 +20°C° 0.3 mm 0 mps 624 mmHg 96%
23:00 +20°C° 0.3 mm 0 mps 624 mmHg 96%

17 August, Monday

Time Temperature Precipitation Wind Pressure Humidity
00:00 +20°C° 0.3 mm 0 mps 624 mmHg 95%
01:00 +19°C° 0.2 mm 0 mps 624 mmHg 96%
02:00 +19°C° 0.2 mm 0 mps 624 mmHg 96%
03:00 +19°C° 0.2 mm 0 mps 623 mmHg 96%
04:00 +19°C° 0.1 mm 0 mps 623 mmHg 96%
05:00 +19°C° 0.1 mm 0 mps 624 mmHg 96%
06:00 +19°C° 0.1 mm 0 mps 624 mmHg 96%
07:00 +20°C° 0.1 mm 0 mps 624 mmHg 93%
08:00 +22°C° 0.1 mm 0 mps 625 mmHg 90%
09:00 +25°C° 0.1 mm 1 mps 625 mmHg 87%
10:00 +26°C° 0.3 mm 1 mps 625 mmHg 82%
11:00 +27°C° 0.3 mm 1 mps 625 mmHg 76%
12:00 +29°C° 0.3 mm 2 mps 625 mmHg 71%
13:00 +28°C° 1.5 mm 2 mps 624 mmHg 77%
14:00 +27°C° 1.5 mm 2 mps 623 mmHg 83%
15:00 +26°C° 1.5 mm 2 mps 622 mmHg 89%
16:00 +25°C° 1.3 mm 1 mps 622 mmHg 92%
17:00 +24°C° 1.3 mm 1 mps 622 mmHg 95%
18:00 +24°C° 1.3 mm 1 mps 622 mmHg 97%
19:00 +23°C° 0.4 mm 1 mps 623 mmHg 97%
20:00 +21°C° 0.4 mm 0 mps 623 mmHg 97%
21:00 +20°C° 0.4 mm 0 mps 624 mmHg 97%
22:00 +20°C° 0.3 mm 0 mps 624 mmHg 97%
23:00 +20°C° 0.3 mm 0 mps 624 mmHg 97%
Show more